Location: Malvern Link
(52.1333°N, 2.3000°W)
Time: 08:01:01
(UTC+00:00)

QB50P2 - Pass Details

Date: 28 June 2022
Orbit: 590 x 605 km, 97.9° (Epoch: 15 August)

Event Time Altitude Azimuth Distance (km) Brightness Sun altitude
Rises 01:08:07 0° 20° (NNE) 2,859 ? -13.6°
Reaches altitude 10° 01:10:25 10° 28° (NNE) 1,953 ? -13.5°
Maximum altitude 01:14:24 38° 98° (E) 920 ? -13.4°
Enters shadow 01:17:27 16° 161° (SSE) 1,613 ? -13.3°
